When you browse on this site, cookies collect data to enhance your experience and personalize the content and advertising you see.
Visit our Privacy Policy to learn more. By continuing to use the site, you agree to this use of cookies and data.

Hourly Weather Lozenec

Today, 3 August, Monday

Time Temperature Precipitation Wind Pressure Humidity
00:00 +20°C° 0 mm 3 mps 757 mmHg 89%
01:00 +20°C° 0 mm 3 mps 758 mmHg 88%
02:00 +20°C° 0 mm 3 mps 758 mmHg 87%
03:00 +20°C° 0 mm 3 mps 758 mmHg 85%
04:00 +19°C° 0 mm 3 mps 758 mmHg 83%
05:00 +19°C° 0 mm 3 mps 757 mmHg 82%
06:00 +21°C° 0 mm 3 mps 758 mmHg 71%
07:00 +23°C° 0 mm 4 mps 758 mmHg 61%
08:00 +26°C° 0 mm 5 mps 758 mmHg 50%
09:00 +27°C° 0 mm 5 mps 758 mmHg 48%
10:00 +28°C° 0 mm 5 mps 757 mmHg 45%
11:00 +28°C° 0 mm 5 mps 757 mmHg 43%
12:00 +28°C° 0 mm 5 mps 757 mmHg 43%
13:00 +29°C° 0 mm 5 mps 757 mmHg 43%
14:00 +29°C° 0 mm 5 mps 756 mmHg 42%
15:00 +28°C° 0 mm 5 mps 756 mmHg 46%
16:00 +27°C° 0 mm 5 mps 756 mmHg 50%
17:00 +27°C° 0 mm 5 mps 756 mmHg 54%
18:00 +25°C° 0 mm 4 mps 756 mmHg 64%
19:00 +22°C° 0 mm 4 mps 756 mmHg 73%
20:00 +20°C° 0 mm 4 mps 756 mmHg 83%
21:00 +20°C° 0 mm 3 mps 756 mmHg 84%
22:00 +20°C° 0 mm 3 mps 756 mmHg 85%
23:00 +20°C° 0 mm 3 mps 756 mmHg 86%

Tomorrow, 4 August, Tuesday

Time Temperature Precipitation Wind Pressure Humidity
00:00 +20°C° 0 mm 3 mps 756 mmHg 87%
01:00 +19°C° 0 mm 3 mps 756 mmHg 87%
02:00 +19°C° 0 mm 3 mps 756 mmHg 88%
03:00 +19°C° 0 mm 3 mps 756 mmHg 88%
04:00 +19°C° 0 mm 3 mps 755 mmHg 88%
05:00 +19°C° 0 mm 2 mps 755 mmHg 88%
06:00 +21°C° 0 mm 3 mps 755 mmHg 80%
07:00 +23°C° 0 mm 4 mps 755 mmHg 72%
08:00 +26°C° 0 mm 4 mps 755 mmHg 63%
09:00 +27°C° 0 mm 4 mps 755 mmHg 59%
10:00 +28°C° 0 mm 5 mps 755 mmHg 55%
11:00 +29°C° 0 mm 5 mps 755 mmHg 51%
12:00 +29°C° 0 mm 5 mps 755 mmHg 51%
13:00 +29°C° 0 mm 5 mps 755 mmHg 51%
14:00 +29°C° 0 mm 5 mps 755 mmHg 51%
15:00 +29°C° 0 mm 5 mps 755 mmHg 54%
16:00 +28°C° 0 mm 5 mps 755 mmHg 57%
17:00 +27°C° 0 mm 5 mps 755 mmHg 60%
18:00 +25°C° 0 mm 5 mps 755 mmHg 69%
19:00 +23°C° 0 mm 4 mps 755 mmHg 78%
20:00 +21°C° 0 mm 4 mps 755 mmHg 87%
21:00 +21°C° 0 mm 4 mps 755 mmHg 88%
22:00 +21°C° 0 mm 4 mps 755 mmHg 90%
23:00 +20°C° 0 mm 3 mps 755 mmHg 91%

Day after tomorrow, 5 August, Wednesday

Time Temperature Precipitation Wind Pressure Humidity
00:00 +20°C° 0 mm 3 mps 755 mmHg 91%
01:00 +20°C° 0 mm 3 mps 755 mmHg 91%
02:00 +20°C° 0 mm 3 mps 755 mmHg 90%
03:00 +20°C° 0 mm 3 mps 754 mmHg 90%
04:00 +20°C° 0 mm 3 mps 754 mmHg 90%
05:00 +20°C° 0 mm 3 mps 754 mmHg 90%
06:00 +22°C° 0 mm 4 mps 754 mmHg 82%
07:00 +25°C° 0 mm 5 mps 755 mmHg 74%
08:00 +26°C° 0 mm 6 mps 755 mmHg 65%
09:00 +27°C° 0 mm 6 mps 755 mmHg 62%
10:00 +28°C° 0 mm 6 mps 755 mmHg 58%
11:00 +29°C° 0 mm 6 mps 755 mmHg 54%
12:00 +29°C° 0 mm 6 mps 755 mmHg 55%
13:00 +29°C° 0 mm 7 mps 754 mmHg 55%
14:00 +30°C° 0 mm 7 mps 754 mmHg 55%
15:00 +29°C° 0 mm 7 mps 754 mmHg 57%
16:00 +29°C° 0 mm 7 mps 754 mmHg 58%
17:00 +28°C° 0 mm 7 mps 754 mmHg 59%
18:00 +27°C° 0 mm 6 mps 754 mmHg 65%
19:00 +24°C° 0 mm 6 mps 755 mmHg 72%
20:00 +23°C° 0 mm 6 mps 755 mmHg 78%
21:00 +23°C° 0 mm 5 mps 755 mmHg 79%
22:00 +22°C° 0 mm 5 mps 755 mmHg 81%
23:00 +22°C° 0 mm 5 mps 755 mmHg 82%

6 August, Thursday

Time Temperature Precipitation Wind Pressure Humidity
00:00 +22°C° 0 mm 5 mps 755 mmHg 82%
01:00 +22°C° 0 mm 5 mps 754 mmHg 83%
02:00 +21°C° 0 mm 5 mps 754 mmHg 83%
03:00 +22°C° 0 mm 5 mps 754 mmHg 84%
04:00 +22°C° 0 mm 5 mps 754 mmHg 84%
05:00 +22°C° 0 mm 5 mps 754 mmHg 85%
06:00 +23°C° 0 mm 6 mps 755 mmHg 79%
07:00 +26°C° 0 mm 7 mps 755 mmHg 73%
08:00 +27°C° 0 mm 7 mps 755 mmHg 66%
09:00 +28°C° 0 mm 7 mps 755 mmHg 64%
10:00 +29°C° 0 mm 7 mps 755 mmHg 61%
11:00 +29°C° 0 mm 8 mps 755 mmHg 58%
12:00 +31°C° 0 mm 8 mps 755 mmHg 57%
13:00 +31°C° 0 mm 8 mps 755 mmHg 56%
14:00 +31°C° 0 mm 8 mps 755 mmHg 55%
15:00 +31°C° 0 mm 8 mps 755 mmHg 59%
16:00 +29°C° 0 mm 8 mps 755 mmHg 62%
17:00 +28°C° 0 mm 8 mps 755 mmHg 66%
18:00 +27°C° 0 mm 7 mps 755 mmHg 72%
19:00 +26°C° 0 mm 7 mps 755 mmHg 79%
20:00 +24°C° 0 mm 7 mps 756 mmHg 85%
21:00 +24°C° 0 mm 6 mps 756 mmHg 85%
22:00 +24°C° 0 mm 6 mps 756 mmHg 85%
23:00 +24°C° 0 mm 6 mps 756 mmHg 85%

7 August, Friday

Time Temperature Precipitation Wind Pressure Humidity
00:00 +24°C° 0 mm 6 mps 755 mmHg 86%
01:00 +23°C° 0 mm 6 mps 755 mmHg 86%
02:00 +23°C° 0 mm 5 mps 755 mmHg 87%
03:00 +23°C° 0 mm 5 mps 755 mmHg 87%
04:00 +24°C° 0 mm 6 mps 755 mmHg 87%
05:00 +24°C° 0 mm 6 mps 755 mmHg 88%
06:00 +26°C° 0 mm 7 mps 755 mmHg 80%
07:00 +28°C° 0 mm 7 mps 755 mmHg 72%
08:00 +29°C° 0 mm 8 mps 755 mmHg 65%
09:00 +31°C° 0 mm 9 mps 755 mmHg 61%
10:00 +32°C° 0 mm 9 mps 755 mmHg 57%
11:00 +33°C° 0 mm 9 mps 755 mmHg 53%
12:00 +33°C° 0 mm 10 mps 754 mmHg 53%
13:00 +33°C° 0 mm 10 mps 754 mmHg 53%
14:00 +33°C° 0 mm 10 mps 754 mmHg 53%
15:00 +32°C° 0 mm 10 mps 754 mmHg 58%
16:00 +31°C° 0 mm 10 mps 754 mmHg 64%
17:00 +29°C° 0 mm 10 mps 754 mmHg 69%
18:00 +28°C° 0 mm 9 mps 754 mmHg 73%
19:00 +27°C° 0 mm 9 mps 754 mmHg 77%
20:00 +27°C° 0 mm 8 mps 754 mmHg 81%
21:00 +26°C° 0 mm 7 mps 754 mmHg 81%
22:00 +26°C° 0 mm 7 mps 754 mmHg 82%
23:00 +26°C° 0 mm 7 mps 754 mmHg 83%

8 August, Saturday

Time Temperature Precipitation Wind Pressure Humidity
00:00 +26°C° 0 mm 6 mps 754 mmHg 83%
01:00 +26°C° 0 mm 6 mps 754 mmHg 84%
02:00 +26°C° 0 mm 6 mps 753 mmHg 85%
03:00 +26°C° 0 mm 6 mps 753 mmHg 84%
04:00 +26°C° 0 mm 7 mps 753 mmHg 83%
05:00 +26°C° 0 mm 8 mps 753 mmHg 83%
06:00 +27°C° 0.3 mm 8 mps 753 mmHg 79%
07:00 +27°C° 0.3 mm 8 mps 753 mmHg 75%
08:00 +28°C° 0.3 mm 8 mps 753 mmHg 71%
09:00 +29°C° 0.2 mm 9 mps 753 mmHg 67%
10:00 +31°C° 0.2 mm 9 mps 753 mmHg 62%
11:00 +32°C° 0.2 mm 10 mps 753 mmHg 58%
12:00 +31°C° 0.3 mm 10 mps 753 mmHg 59%
13:00 +31°C° 0.3 mm 10 mps 753 mmHg 60%
14:00 +31°C° 0.3 mm 9 mps 753 mmHg 61%
15:00 +29°C° 0.3 mm 9 mps 753 mmHg 63%
16:00 +29°C° 0.3 mm 9 mps 753 mmHg 64%
17:00 +29°C° 0.3 mm 8 mps 753 mmHg 65%
18:00 +28°C° 0 mm 8 mps 753 mmHg 70%
19:00 +27°C° 0 mm 7 mps 753 mmHg 75%
20:00 +26°C° 0 mm 7 mps 753 mmHg 79%
21:00 +26°C° 0 mm 6 mps 753 mmHg 82%
22:00 +24°C° 0 mm 6 mps 753 mmHg 85%
23:00 +25°C° 0 mm 5 mps 753 mmHg 87%
Show more